Lexington Weather

Lexington, Massachusetts, USA

24°F
3/3/2021 4:24am 
  • Lexington Conditions: Clear
  • Temperature: 24.3°F / -4.3°CWarmer 0.6°F than last hour.
  • Dew Point: 11.7°FIncreased 0.6°Fsince last hour.
  • Relative Humidity: 58
  • Wind: Wind from SW SW 8 mph, 10-min avg: 1 mph, gust: 8 mph
  • Barometer: 29.85 in Steady
  • Visibility: 10 miles
  • Snow Today: 0.0 in
  •   

Regional Weather Roundup
for Boston / Norton, MA

        
000
ASUS41 KBOX 010404
RWRBOX

REGIONAL WEATHER ROUNDUP
NATIONAL WEATHER SERVICE BOSTON/NORTON MA
1100 PM EST SUN FEB 28 2021

NOTE:  "FAIR" INDICATES FEW OR NO CLOUDS BELOW 12,000 FEET WITH NO 
SIGNIFICANT WEATHER AND/OR OBSTRUCTIONS TO VISIBILITY.

MAZALL-010500-
EASTERN MASSACHUSETTS
  
CITY           SKY/WX    TMP DP  RH WIND       PRES   REMARKS
BOSTON         LGT RAIN  37  35  92 E8        30.06F WCI  31          
BEVERLY        CLOUDY    40  36  86 SE8       30.05F                  
LAWRENCE       CLOUDY    39  34  82 E5        30.06F                  
BEDFORD        LGT RAIN  38  31  76 E7        30.03F                  
BLUE HILL        N/A     35  34  96 SE10      30.01F WCI  27          
NORWOOD        CLOUDY    39  32  76 E3        30.04F                  
MARSHFIELD     CLOUDY    41  39  93 SE7       30.05F                  
PLYMOUTH       LGT RAIN  40  35  83 E9        30.04F                  
TAUNTON        CLOUDY    40  35  83 SE7       30.04F                  
NEW BEDFORD    LGT RAIN  41  37  86 E8        30.04F FOG              
$$

MAZALL-010500-
CAPE COD AND THE ISLANDS
  
CITY           SKY/WX    TMP DP  RH WIND       PRES   REMARKS
FALMOUTH       CLOUDY    39  37  93 SE12G20   30.09S WCI  32          
HYANNIS        CLOUDY    41  37  86 E8        30.03F                  
CHATHAM        CLOUDY    41  36  82 E8        30.08S                  
PROVINCETOWN   CLOUDY    40  37  89 SE12      30.07F                  
NANTUCKET        N/A    N/A N/A N/A MISG      30.04F                  
MARTHAS VNYRD  LGT RAIN  41  39  93 E8        30.03F FOG              
$$
 
MAZALL-010500-
CENTRAL AND WESTERN MASSACHUSETTS
  
CITY           SKY/WX    TMP DP  RH WIND       PRES   REMARKS
WORCESTER      CLOUDY    35  28  75 SE6       30.00F HAZE    WCI  30  
FITCHBURG      LGT RAIN  37  33  85 SE3       30.03F                  
ORANGE         CLOUDY    37  31  78 SE5       30.01F                  
SPRINGFIELD    LGT RAIN  36  34  92 SE3       30.01F                  
WESTFIELD      LGT RAIN  35  34  96 S6        30.02F FOG     WCI  30  
NORTH ADAMS    CLOUDY    37  32  82 VRB7      29.96F WCI  32          
$$
 
RIZALL-010500-
RHODE ISLAND
  
CITY           SKY/WX    TMP DP  RH WIND       PRES   REMARKS
PROVIDENCE     LGT RAIN  39  37  92 E6        30.04F FOG              
NEWPORT        LGT RAIN  39  37  92 E7        30.01F FOG              
BLOCK ISLAND   LGT RAIN  38  37  97 E6        30.00F VSB 3/4          
SMITHFIELD     MIX PCPN  36  36 100 E5        30.02F                  
WESTERLY       LGT RAIN  37  37 100 NE6       30.01F FOG              
$$
 
CTZALL-010500-
CONNECTICUT
  
CITY           SKY/WX    TMP DP  RH WIND       PRES   REMARKS
BRADLEY INTL   LGT RAIN  36  34  92 CALM      30.02F FOG              
HARTFORD       LGT RAIN  38  35  89 N3        30.02F FOG              
BRIDGEPORT     LGT RAIN  39  37  92 NE14      29.98F FOG     WCI  31  
DANBURY        LGT RAIN  39  36  89 NE6       29.98F FOG              
GROTON         LGT RAIN  39  38  96 E13       29.99F FOG     WCI  31  
NEW HAVEN      CLOUDY    41  39  93 E6        29.97F FOG              
CHESTER        LGT RAIN  39  37  93 NE3       29.99F VSB 1            
MERIDEN        LGT RAIN  38  35  89 N3        30.00F FOG              
WILLIMANTIC    LGT RAIN  36  34  92 CALM      30.03F FOG              
OXFORD         MIX PCPN  36  36 100 NE6       29.98F FOG     WCI  31  
$$

MEZ002-015-021-024-NHZ003-005-008-011-012-014-VTZ005-008-010500-
NORTHERN NEW ENGLAND
  
CITY           SKY/WX    TMP DP  RH WIND       PRES   REMARKS
PORTLAND ME    CLOUDY    39  33  79 S6        30.10F                  
BANGOR ME      CLOUDY    34  28  79 S3        30.11F                  
CONCORD NH     CLOUDY    36  29  75 SE3       30.03F                  
MANCHESTER NH  CLOUDY    38  30  73 SE6       30.03F                  
NASHUA NH      CLOUDY    37  33  85 SE3       30.04F                  
PORTSMOUTH NH  CLOUDY    39  35  87 SE9       30.05F                  
JAFFREY NH     CLOUDY    35  30  82 CALM      29.99F                  
KEENE NH       CLOUDY    38  31  76 S6        30.00F                  
BURLINGTON VT  CLOUDY    42  28  57 S16G28    29.84F                  
MT. WASHINGTON SNOW      21  21 100 S47G54      N/A  VSB 1/16WCI  -1  
$$

NYZ052-076-010500-
EASTERN NEW YORK
  
CITY           SKY/WX    TMP DP  RH WIND       PRES   REMARKS
ALBANY         CLOUDY    36  34  92 SE9       29.93F WCI  29          
NEW YORK CITY  LGT RAIN  39  37  92 NE12      29.95F VSB 1/2 WCI  32  
$$
 
ANZALL-010500-
MARINE OBSERVATIONS
  
STATION/POSITION TIME  TEMP    WIND        PRES    VSBY  WAVE
                       AIR SEA DIR/SP/G                  HT/PER
                 (UTC) (F)     (DEG/KT/KT) (MB)    (MI)  (FT/S)
BOSTON BUOY      0340   39 39  120/ 10/ 14 1018.6F
BUZZARDS BAY     0300           90/ 12/ 13 1018.2F
NANTUCKET SOUND  0340      37  100/ 10/ 12   N/A
MASS BAY-STELLWA 0304   40     130/ 12/ 16 1018.0F  1 7/8
ISLE OF SHOALS   0300   40     140/ 14/ 16 1018.7F
S OF BLOCK IS    0326      40                N/A           5/ 8
$$

......................KEY.........................
  SKY/WX - SKY CONDITION/PRESENT WEATHER
  TMP    - TEMPERATURE IN FAHRENHEIT
  DWPT   - DEWPOINT IN FAHRENHEIT
  RH     - RELATIVE HUMIDITY IN PERCENT
  WIND   - DIRECTION AND SPEED IN MPH
  PRES   - MEAN SEA LEVEL PRESSURE IN INCHES OF HG
  WCI    - WIND CHILL INDEX
  VSB    - VISIBILITY IN MILES
  HX     - HEAT INDEX
  TC     - TEMPERATURE IN CELSIUS
  VRB    - VARIABLE WIND DIRECTION
  N/A    - NOT AVAILABLE
  
      

Other recent Regional Weather Roundups

Wed Mar 3, 4:04am

Wed Mar 3, 3:04am

Wed Mar 3, 2:04am

Wed Mar 3, 1:04am

Wed Mar 3, 12:04am

Tue Mar 2, 11:04pm

Tue Mar 2, 10:05pm

Tue Mar 2, 9:04pm

Tue Mar 2, 8:04pm

Tue Mar 2, 7:04pm

Tue Mar 2, 6:04pm

Tue Mar 2, 5:04pm

Tue Mar 2, 4:05pm

Tue Mar 2, 3:04pm

Tue Mar 2, 2:04pm

Tue Mar 2, 1:04pm

Tue Mar 2, 12:04pm

Tue Mar 2, 11:04am

Tue Mar 2, 10:05am

Tue Mar 2, 9:04am

Tue Mar 2, 8:04am

Tue Mar 2, 7:04am

Tue Mar 2, 6:05am

Tue Mar 2, 5:04am

Tue Mar 2, 4:04am

Tue Mar 2, 3:04am

Tue Mar 2, 2:04am

Tue Mar 2, 1:04am

Tue Mar 2, 12:04am

Mon Mar 1, 11:04pm

Mon Mar 1, 10:04pm

Mon Mar 1, 9:04pm

Mon Mar 1, 8:04pm

Mon Mar 1, 7:04pm

Mon Mar 1, 6:04pm

Mon Mar 1, 5:04pm

Mon Mar 1, 4:05pm

Mon Mar 1, 3:05pm

Mon Mar 1, 2:04pm

Mon Mar 1, 1:04pm

Mon Mar 1, 12:04pm

Mon Mar 1, 11:04am

Mon Mar 1, 10:04am

Mon Mar 1, 9:04am

Mon Mar 1, 8:05am

Mon Mar 1, 7:04am

Mon Mar 1, 6:04am

Mon Mar 1, 5:04am

Mon Mar 1, 4:05am

Mon Mar 1, 3:04am

Mon Mar 1, 2:04am

Mon Mar 1, 1:04am

Mon Mar 1, 12:05am

Sun Feb 28, 10:04pm

Sun Feb 28, 9:04pm

Sun Feb 28, 8:04pm

Sun Feb 28, 7:04pm

Sun Feb 28, 6:05pm

Sun Feb 28, 5:04pm

Sun Feb 28, 4:05pm

Sun Feb 28, 3:04pm

Sun Feb 28, 2:04pm

Sun Feb 28, 1:04pm

Sun Feb 28, 12:04pm

Sun Feb 28, 11:04am

Sun Feb 28, 10:04am

Sun Feb 28, 9:04am

Sun Feb 28, 8:04am

Sun Feb 28, 7:04am

Sun Feb 28, 6:04am

Sun Feb 28, 5:04am

Sun Feb 28, 4:04am

Sun Feb 28, 3:04am

Sun Feb 28, 2:04am

Sun Feb 28, 1:04am

Sun Feb 28, 12:04am

Sat Feb 27, 11:04pm

Sat Feb 27, 10:04pm

Sat Feb 27, 9:04pm

Sat Feb 27, 8:04pm

Sat Feb 27, 7:04pm

Sat Feb 27, 6:04pm

Sat Feb 27, 5:04pm

Sat Feb 27, 4:04pm

Sat Feb 27, 3:05pm

Sat Feb 27, 2:05pm

Sat Feb 27, 1:04pm

Sat Feb 27, 12:04pm

Sat Feb 27, 11:04am

Sat Feb 27, 10:04am

Sat Feb 27, 9:05am

Sat Feb 27, 8:04am

Sat Feb 27, 7:04am

Sat Feb 27, 6:04am

Sat Feb 27, 5:04am

Sat Feb 27, 4:04am

Sat Feb 27, 3:04am

Sat Feb 27, 2:04am

Sat Feb 27, 1:04am

Sat Feb 27, 12:04am

Fri Feb 26, 11:04pm

Fri Feb 26, 10:04pm

Fri Feb 26, 9:04pm

Fri Feb 26, 8:04pm

Fri Feb 26, 7:04pm

Fri Feb 26, 6:04pm

Fri Feb 26, 5:04pm

Fri Feb 26, 4:04pm

Fri Feb 26, 3:04pm

Fri Feb 26, 2:04pm

Fri Feb 26, 1:04pm

Fri Feb 26, 12:04pm

Fri Feb 26, 11:04am

Fri Feb 26, 10:04am

Fri Feb 26, 9:04am

Fri Feb 26, 8:04am

Fri Feb 26, 7:04am

Fri Feb 26, 6:04am

Fri Feb 26, 5:04am

Fri Feb 26, 4:04am

Fri Feb 26, 3:04am

Fri Feb 26, 2:04am

Fri Feb 26, 1:04am

Fri Feb 26, 12:04am

Thu Feb 25, 11:04pm

Thu Feb 25, 10:04pm

Thu Feb 25, 9:04pm

Thu Feb 25, 8:05pm

Thu Feb 25, 7:05pm

Thu Feb 25, 6:04pm

Thu Feb 25, 5:04pm

Thu Feb 25, 4:05pm

Thu Feb 25, 3:05pm

Thu Feb 25, 2:04pm

Thu Feb 25, 1:04pm

Thu Feb 25, 12:05pm

Thu Feb 25, 11:04am

Thu Feb 25, 10:04am

Thu Feb 25, 9:04am

Thu Feb 25, 8:04am

Thu Feb 25, 7:04am

Thu Feb 25, 6:04am

Thu Feb 25, 5:04am

Thu Feb 25, 4:04am

Thu Feb 25, 3:04am

Thu Feb 25, 2:04am

Thu Feb 25, 1:04am

Thu Feb 25, 12:04am

Wed Feb 24, 11:04pm

Wed Feb 24, 10:05pm

Wed Feb 24, 9:04pm

Wed Feb 24, 8:04pm

Wed Feb 24, 7:04pm

Wed Feb 24, 6:04pm

Wed Feb 24, 5:04pm

Wed Feb 24, 4:04pm

Wed Feb 24, 3:04pm

Wed Feb 24, 2:05pm

Wed Feb 24, 1:05pm

Wed Feb 24, 12:05pm

Wed Feb 24, 11:04am

Wed Feb 24, 10:04am

Wed Feb 24, 9:04am

Wed Feb 24, 8:04am

Wed Feb 24, 7:04am

Wed Feb 24, 6:04am

Wed Feb 24, 5:04am

Meta data:

ID: 843e51e6-e1dc-4def-b60b-7ff5e5819516
Link: https://api.weather.gov/products/843e51e6-e1dc-4def-b60b-7ff5e5819516